START_TIME,STEP,MOV.,M34,t_acc.,L5,t_acc.,L18,t_acc.,L14,t_acc.
1979-07-07 03:00:25.340 ,1,0,0.,12.0,0.,12.0,0.,12.0,0.,12.0
1979-07-07 03:00:37.340 ,1,0,0.,12.0,0.,12.0,0.,12.0,0.,12.0
1979-07-07 03:00:49.340 ,2,1,1.,12.0,0.,12.0,0.,12.0,0.,12.0
1979-07-07 03:01:01.340 ,2,1,4.,12.0,0.,12.0,0.,12.0,0.,12.0
1979-07-07 03:01:13.340 ,2,0,0.,12.0,0.,12.0,0.,12.0,0.,12.0
1979-07-07 03:01:25.340 ,2,0,0.,12.0,0.,12.0,0.,12.0,0.,12.0
1979-07-07 03:01:37.340 ,3,1,2.,12.0,0.,12.0,0.,12.0,0.,12.0
1979-07-07 03:01:49.340 ,3,1,0.,12.0,0.,12.0,0.,12.0,0.,12.0
1979-07-07 03:02:01.340 ,3,0,1.,12.0,0.,12.0,0.,12.0,0.,12.0
1979-07-07 03:02:13.340 ,3,0,3.,12.0,0.,12.0,0.,12.0,0.,12.0
1979-07-07 03:02:25.340 ,4,1,1.,12.0,0.,12.0,0.,12.0,0.,12.0
1979-07-07 03:02:37.340 ,4,1,0.,12.0,0.,12.0,0.,12.0,0.,12.0
1979-07-07 03:02:49.340 ,4,0,4.,12.0,0.,12.0,0.,12.0,0.,12.0
1979-07-07 03:03:01.340 ,4,0,3.,12.0,0.,12.0,0.,12.0,0.,12.0
1979-07-07 03:03:13.340 ,5,1,1.,12.0,0.,12.0,0.,12.0,0.,12.0
1979-07-07 03:03:25.340 ,5,1,3.,12.0,0.,12.0,0.,12.0,0.,12.0
1979-07-07 03:03:37.340 ,5,0,3.,12.0,0.,12.0,0.,12.0,0.,12.0
1979-07-07 03:03:49.340 ,5,0,6.,12.0,0.,12.0,0.,12.0,0.,12.0
1979-07-07 03:04:01.340 ,6,1,3.,12.0,0.,12.0,0.,12.0,0.,12.0
1979-07-07 03:04:13.340 ,6,1,3.,12.0,0.,12.0,0.,12.0,0.,12.0
1979-07-07 03:04:25.340 ,6,0,6.,12.0,0.,12.0,0.,12.0,1.,12.0
1979-07-07 03:04:37.340 ,6,0,2.,12.0,0.,12.0,0.,12.0,0.,12.0
1979-07-07 03:04:49.340 ,7,1,5.,12.0,0.,12.0,0.,12.0,1.,12.0
1979-07-07 03:05:01.340 ,7,1,1.,12.0,0.,12.0,0.,12.0,0.,12.0
1979-07-07 03:05:13.340 ,7,0,0.,12.0,0.,12.0,0.,12.0,0.,12.0
1979-07-07 03:05:25.340 ,7,0,0.,12.0,0.,12.0,0.,12.0,0.,12.0
1979-07-07 03:05:37.340 ,7,1,0.,12.0,0.,12.0,0.,12.0,0.,12.0
1979-07-07 03:05:49.340 ,7,1,0.,12.0,0.,12.0,0.,12.0,0.,12.0
1979-07-07 03:06:01.340 ,7,0,0.,12.0,0.,12.0,0.,12.0,0.,12.0
1979-07-07 03:06:13.340 ,7,0,0.,12.0,0.,12.0,0.,12.0,0.,12.0
1979-07-07 03:06:25.340 ,6,1,0.,12.0,0.,12.0,0.,12.0,0.,12.0
1979-07-07 03:06:37.340 ,6,1,3.,12.0,0.,12.0,0.,12.0,0.,12.0
1979-07-07 03:06:49.340 ,6,0,1.,12.0,0.,12.0,0.,12.0,0.,12.0
1979-07-07 03:07:01.340 ,6,0,5.,12.0,0.,12.0,0.,12.0,1.,12.0
1979-07-07 03:07:13.340 ,5,1,3.,12.0,0.,12.0,0.,12.0,0.,12.0
1979-07-07 03:07:25.340 ,5,1,4.,12.0,0.,12.0,0.,12.0,0.,12.0
1979-07-07 03:07:37.340 ,5,0,11.,12.0,0.,12.0,0.,12.0,0.,12.0
1979-07-07 03:07:49.340 ,5,0,11.,12.0,0.,12.0,0.,12.0,0.,12.0
1979-07-07 03:08:01.340 ,4,1,5.,12.0,0.,12.0,0.,12.0,1.,12.0
1979-07-07 03:08:13.340 ,4,1,2.,12.0,0.,12.0,0.,12.0,0.,12.0
1979-07-07 03:08:25.340 ,4,0,3.,12.0,0.,12.0,0.,12.0,1.,12.0
1979-07-07 03:08:37.340 ,4,0,6.,12.0,0.,12.0,0.,12.0,0.,12.0
1979-07-07 03:08:49.340 ,3,1,6.,12.0,0.,12.0,0.,12.0,0.,12.0
1979-07-07 03:09:01.340 ,3,1,3.,12.0,0.,12.0,0.,12.0,1.,12.0
1979-07-07 03:09:13.340 ,3,0,2.,12.0,0.,12.0,0.,12.0,0.,12.0
1979-07-07 03:09:25.340 ,3,0,2.,12.0,0.,12.0,0.,12.0,0.,12.0
1979-07-07 03:09:37.340 ,2,1,1.,12.0,0.,12.0,0.,12.0,0.,12.0
1979-07-07 03:09:49.340 ,2,1,2.,12.0,0.,12.0,0.,12.0,0.,12.0
1979-07-07 03:10:01.340 ,2,0,0.,12.0,0.,12.0,0.,12.0,0.,12.0
1979-07-07 03:10:13.340 ,2,0,1.,12.0,0.,12.0,0.,12.0,0.,12.0
1979-07-07 03:10:25.340 ,1,1,1.,12.0,0.,12.0,0.,12.0,0.,12.0
1979-07-07 03:10:37.340 ,1,1,2.,12.0,0.,12.0,0.,12.0,0.,12.0
1979-07-07 03:10:49.340 ,1,0,2.,12.0,0.,12.0,0.,12.0,0.,12.0
1979-07-07 03:11:01.340 ,1,0,0.,12.0,0.,12.0,0.,12.0,0.,12.0
1979-07-07 03:11:13.340 ,0,1,1.,12.0,0.,12.0,0.,12.0,0.,12.0
1979-07-07 03:11:25.340 ,0,1,2.,12.0,0.,12.0,0.,12.0,0.,12.0
1979-07-07 03:11:37.340 ,0,0,1.,12.0,0.,12.0,0.,12.0,1.,12.0
1979-07-07 03:11:49.340 ,0,0,1.,12.0,0.,12.0,0.,12.0,0.,12.0
1979-07-07 03:12:01.340 ,0,1,2.,12.0,0.,12.0,0.,12.0,0.,12.0
1979-07-07 03:12:13.340 ,0,1,0.,12.0,0.,12.0,0.,12.0,0.,12.0
1979-07-07 03:12:25.340 ,0,0,2.,12.0,0.,12.0,0.,12.0,0.,12.0
1979-07-07 03:12:37.340 ,0,0,1.,12.0,0.,12.0,0.,12.0,1.,12.0
1979-07-07 03:12:49.340 ,1,1,0.,12.0,0.,12.0,0.,12.0,1.,12.0
1979-07-07 03:13:01.340 ,1,1,0.,12.0,0.,12.0,0.,12.0,0.,12.0
1979-07-07 03:13:13.340 ,1,0,0.,12.0,0.,12.0,0.,12.0,0.,12.0
1979-07-07 03:13:25.340 ,1,0,2.,12.0,0.,12.0,0.,12.0,0.,12.0
1979-07-07 03:13:37.340 ,2,1,3.,12.0,0.,12.0,0.,12.0,0.,12.0
1979-07-07 03:13:49.340 ,2,1,1.,12.0,0.,12.0,0.,12.0,0.,12.0
1979-07-07 03:14:01.340 ,2,0,0.,12.0,0.,12.0,0.,12.0,0.,12.0
1979-07-07 03:14:13.340 ,2,0,1.,12.0,0.,12.0,0.,12.0,1.,12.0
1979-07-07 03:14:25.340 ,3,1,1.,12.0,0.,12.0,0.,12.0,0.,12.0
1979-07-07 03:14:37.340 ,3,1,3.,12.0,0.,12.0,0.,12.0,0.,12.0
1979-07-07 03:14:49.340 ,3,0,3.,12.0,0.,12.0,0.,12.0,0.,12.0
1979-07-07 03:15:01.340 ,3,0,1.,12.0,0.,12.0,0.,12.0,0.,12.0
1979-07-07 03:15:13.340 ,4,1,7.,12.0,0.,12.0,0.,12.0,1.,12.0
1979-07-07 03:15:25.340 ,4,1,1.,12.0,0.,12.0,0.,12.0,0.,12.0
1979-07-07 03:15:37.340 ,0,0,1.,12.0,0.,12.0,0.,12.0,0.,12.0
1979-07-07 03:15:49.340 ,0,0,1.,12.0,0.,12.0,0.,12.0,0.,12.0
1979-07-07 03:16:01.340 ,5,1,2.,12.0,0.,12.0,0.,12.0,0.,12.0
1979-07-07 03:16:13.340 ,5,1,4.,12.0,0.,12.0,0.,12.0,0.,12.0
1979-07-07 03:16:25.340 ,5,0,6.,12.0,0.,12.0,0.,12.0,0.,12.0
1979-07-07 03:16:37.340 ,5,0,3.,12.0,0.,12.0,0.,12.0,0.,12.0
1979-07-07 03:16:49.340 ,6,1,2.,12.0,0.,12.0,0.,12.0,0.,12.0
1979-07-07 03:17:01.340 ,6,1,2.,12.0,0.,12.0,0.,12.0,0.,12.0
1979-07-07 03:17:13.340 ,6,0,4.,12.0,0.,12.0,0.,12.0,0.,12.0
1979-07-07 03:17:25.340 ,6,0,2.,12.0,0.,12.0,0.,12.0,0.,12.0
1979-07-07 03:17:37.340 ,7,1,4.,12.0,0.,12.0,0.,12.0,0.,12.0
1979-07-07 03:17:49.340 ,7,1,2.,12.0,0.,12.0,0.,12.0,0.,12.0
1979-07-07 03:18:01.340 ,7,0,0.,12.0,0.,12.0,0.,12.0,1.,12.0
1979-07-07 03:18:13.340 ,7,0,0.,12.0,0.,12.0,0.,12.0,1.,12.0
1979-07-07 03:18:25.340 ,7,1,0.,12.0,0.,12.0,0.,12.0,0.,12.0
1979-07-07 03:18:37.340 ,7,1,0.,12.0,0.,12.0,0.,12.0,0.,12.0
1979-07-07 03:18:49.340 ,7,0,0.,12.0,0.,12.0,0.,12.0,0.,12.0
1979-07-07 03:19:01.340 ,7,0,0.,12.0,0.,12.0,0.,12.0,0.,12.0
1979-07-07 03:19:13.340 ,6,1,0.,12.0,0.,12.0,0.,12.0,1.,12.0
1979-07-07 03:19:25.340 ,6,1,5.,12.0,0.,12.0,0.,12.0,0.,12.0
1979-07-07 03:19:37.340 ,6,0,4.,12.0,0.,12.0,0.,12.0,0.,12.0
1979-07-07 03:19:49.340 ,6,0,5.,12.0,0.,12.0,0.,12.0,0.,12.0
1979-07-07 03:20:01.340 ,5,1,1.,12.0,0.,12.0,0.,12.0,0.,12.0
1979-07-07 03:20:13.340 ,5,1,2.,12.0,0.,12.0,0.,12.0,0.,12.0
1979-07-07 03:20:25.340 ,5,0,5.,12.0,0.,12.0,0.,12.0,0.,12.0
1979-07-07 03:20:37.340 ,5,0,2.,12.0,0.,12.0,0.,12.0,0.,12.0
1979-07-07 03:20:49.340 ,4,1,3.,12.0,0.,12.0,0.,12.0,0.,12.0
1979-07-07 03:21:01.340 ,4,1,1.,12.0,0.,12.0,0.,12.0,0.,12.0
1979-07-07 03:21:13.340 ,4,0,2.,12.0,0.,12.0,0.,12.0,1.,12.0
1979-07-07 03:21:25.340 ,4,0,7.,12.0,0.,12.0,0.,12.0,0.,12.0
1979-07-07 03:21:37.340 ,3,1,3.,12.0,0.,12.0,0.,12.0,0.,12.0
1979-07-07 03:21:49.340 ,3,1,1.,12.0,0.,12.0,0.,12.0,0.,12.0
1979-07-07 03:22:01.340 ,3,0,0.,12.0,0.,12.0,0.,12.0,1.,12.0
1979-07-07 03:22:13.340 ,3,0,2.,12.0,0.,12.0,0.,12.0,0.,12.0
1979-07-07 03:22:25.340 ,2,1,1.,12.0,0.,12.0,0.,12.0,0.,12.0
1979-07-07 03:22:37.340 ,2,1,2.,12.0,0.,12.0,0.,12.0,0.,12.0
1979-07-07 03:22:49.340 ,2,0,3.,12.0,0.,12.0,0.,12.0,0.,12.0
1979-07-07 03:23:01.340 ,2,0,2.,12.0,0.,12.0,0.,12.0,0.,12.0
1979-07-07 03:23:13.340 ,1,1,2.,12.0,0.,12.0,0.,12.0,0.,12.0
1979-07-07 03:23:25.340 ,1,1,1.,12.0,0.,12.0,0.,12.0,0.,12.0
1979-07-07 03:23:37.340 ,1,0,2.,12.0,0.,12.0,0.,12.0,1.,12.0
1979-07-07 03:23:49.340 ,1,0,2.,12.0,0.,12.0,0.,12.0,0.,12.0
1979-07-07 03:24:01.340 ,0,1,0.,12.0,0.,12.0,0.,12.0,0.,12.0
1979-07-07 03:24:13.340 ,0,1,0.,12.0,0.,12.0,0.,12.0,0.,12.0
1979-07-07 03:24:25.340 ,0,0,1.,12.0,0.,12.0,0.,12.0,0.,12.0
1979-07-07 03:24:37.340 ,0,0,2.,12.0,0.,12.0,0.,12.0,0.,12.0
1979-07-07 03:24:49.340 ,0,1,1.,12.0,0.,12.0,0.,12.0,0.,12.0
1979-07-07 03:25:01.340 ,0,1,4.,12.0,0.,12.0,0.,12.0,0.,12.0
1979-07-07 03:25:13.340 ,0,0,2.,12.0,0.,12.0,0.,12.0,0.,12.0
1979-07-07 03:25:25.340 ,0,0,2.,12.0,0.,12.0,0.,12.0,0.,12.0
1979-07-07 03:25:37.340 ,1,1,3.,12.0,0.,12.0,0.,12.0,0.,12.0
1979-07-07 03:25:49.340 ,1,1,1.,12.0,0.,12.0,0.,12.0,0.,12.0
1979-07-07 03:26:01.340 ,1,0,1.,12.0,0.,12.0,0.,12.0,1.,12.0
1979-07-07 03:26:13.340 ,1,0,2.,12.0,0.,12.0,0.,12.0,0.,12.0
1979-07-07 03:26:25.330 ,2,1,0.,12.0,0.,12.0,0.,12.0,0.,12.0
1979-07-07 03:26:37.330 ,2,1,2.,12.0,0.,12.0,0.,12.0,0.,12.0
1979-07-07 03:26:49.330 ,2,0,0.,12.0,0.,12.0,0.,12.0,0.,12.0
1979-07-07 03:27:01.330 ,2,0,0.,12.0,0.,12.0,0.,12.0,0.,12.0
1979-07-07 03:27:13.330 ,3,1,1.,12.0,0.,12.0,0.,12.0,1.,12.0
1979-07-07 03:27:25.330 ,3,1,1.,12.0,0.,12.0,0.,12.0,0.,12.0
1979-07-07 03:27:37.330 ,3,0,2.,12.0,0.,12.0,0.,12.0,0.,12.0
1979-07-07 03:27:49.330 ,3,0,3.,12.0,0.,12.0,0.,12.0,0.,12.0
1979-07-07 03:28:01.330 ,4,1,1.,12.0,0.,12.0,0.,12.0,0.,12.0
1979-07-07 03:28:13.330 ,4,1,2.,12.0,0.,12.0,0.,12.0,0.,12.0
1979-07-07 03:28:25.330 ,4,0,4.,12.0,0.,12.0,0.,12.0,0.,12.0
1979-07-07 03:28:37.330 ,4,0,2.,12.0,0.,12.0,0.,12.0,0.,12.0
1979-07-07 03:28:49.330 ,5,1,3.,12.0,0.,12.0,0.,12.0,0.,12.0
1979-07-07 03:29:01.330 ,5,1,3.,12.0,0.,12.0,0.,12.0,0.,12.0
1979-07-07 03:29:13.330 ,5,0,3.,12.0,0.,12.0,0.,12.0,0.,12.0
1979-07-07 03:29:25.330 ,5,0,4.,12.0,0.,12.0,0.,12.0,0.,12.0
1979-07-07 03:29:37.330 ,6,1,5.,12.0,0.,12.0,0.,12.0,1.,12.0
1979-07-07 03:29:49.330 ,6,1,5.,12.0,0.,12.0,0.,12.0,0.,12.0
1979-07-07 03:30:01.330 ,6,0,2.,12.0,0.,12.0,0.,12.0,0.,12.0
1979-07-07 03:30:13.330 ,6,0,1.,12.0,0.,12.0,0.,12.0,0.,12.0
1979-07-07 03:30:25.330 ,7,0,2.,12.0,0.,12.0,0.,12.0,1.,12.0
1979-07-07 03:30:37.330 ,7,0,0.,12.0,0.,12.0,0.,12.0,0.,12.0
1979-07-07 03:30:49.330 ,7,0,0.,12.0,0.,12.0,0.,12.0,0.,12.0
1979-07-07 03:31:01.330 ,7,0,0.,12.0,0.,12.0,0.,12.0,0.,12.0
1979-07-07 03:31:13.330 ,4,1,1.,12.0,0.,12.0,0.,12.0,0.,12.0
1979-07-07 03:31:25.330 ,4,1,4.,12.0,0.,12.0,0.,12.0,0.,12.0
1979-07-07 03:31:37.330 ,0,1,1.,12.0,0.,12.0,0.,12.0,0.,12.0
1979-07-07 03:31:49.330 ,0,1,3.,12.0,0.,12.0,0.,12.0,0.,12.0
1979-07-07 03:32:01.330 ,3,1,0.,12.0,0.,12.0,0.,12.0,0.,12.0
1979-07-07 03:32:13.330 ,3,1,2.,12.0,0.,12.0,0.,12.0,0.,12.0
1979-07-07 03:32:25.330 ,7,1,3.,12.0,0.,12.0,0.,12.0,0.,12.0
1979-07-07 03:32:37.330 ,7,1,4.,12.0,0.,12.0,0.,12.0,0.,12.0
1979-07-07 03:32:49.330 ,4,1,0.,12.0,0.,12.0,0.,12.0,1.,12.0
1979-07-07 03:33:01.330 ,4,1,1.,12.0,0.,12.0,0.,12.0,0.,12.0
1979-07-07 03:33:13.330 ,0,1,1.,12.0,0.,12.0,0.,12.0,0.,12.0
1979-07-07 03:33:25.330 ,0,1,1.,12.0,0.,12.0,0.,12.0,0.,12.0
1979-07-07 03:33:37.330 ,3,1,1.,12.0,0.,12.0,0.,12.0,1.,12.0
1979-07-07 03:33:49.330 ,3,1,2.,12.0,0.,12.0,0.,12.0,0.,12.0
1979-07-07 03:34:01.330 ,7,1,3.,12.0,0.,12.0,0.,12.0,1.,12.0
1979-07-07 03:34:13.330 ,7,1,1.,12.0,0.,12.0,0.,12.0,1.,12.0
1979-07-07 03:34:25.330 ,4,1,0.,12.0,0.,12.0,0.,12.0,0.,12.0
1979-07-07 03:34:37.330 ,4,1,8.,12.0,0.,12.0,0.,12.0,1.,12.0
1979-07-07 03:34:49.330 ,0,1,1.,12.0,0.,12.0,0.,12.0,0.,12.0
1979-07-07 03:35:01.330 ,0,1,0.,12.0,0.,12.0,0.,12.0,0.,12.0
1979-07-07 03:35:13.330 ,3,1,4.,12.0,0.,12.0,0.,12.0,0.,12.0
1979-07-07 03:35:25.330 ,3,1,1.,12.0,0.,12.0,0.,12.0,0.,12.0
1979-07-07 03:35:37.330 ,7,1,1.,12.0,0.,12.0,0.,12.0,0.,12.0
1979-07-07 03:35:49.330 ,7,1,3.,12.0,0.,12.0,0.,12.0,0.,12.0
1979-07-07 03:36:01.330 ,4,1,2.,12.0,0.,12.0,0.,12.0,0.,12.0
1979-07-07 03:36:13.330 ,4,1,2.,12.0,0.,12.0,0.,12.0,0.,12.0
1979-07-07 03:36:25.330 ,0,1,2.,12.0,0.,12.0,0.,12.0,0.,12.0
1979-07-07 03:36:37.330 ,0,1,4.,12.0,0.,12.0,0.,12.0,0.,12.0
1979-07-07 03:36:49.330 ,3,1,2.,12.0,0.,12.0,0.,12.0,0.,12.0
1979-07-07 03:37:01.330 ,3,1,1.,12.0,0.,12.0,0.,12.0,0.,12.0
1979-07-07 03:37:13.330 ,7,1,6.,12.0,0.,12.0,0.,12.0,0.,12.0
1979-07-07 03:37:25.330 ,7,1,3.,12.0,0.,12.0,0.,12.0,1.,12.0
1979-07-07 03:37:37.330 ,4,1,1.,12.0,0.,12.0,0.,12.0,0.,12.0
1979-07-07 03:37:49.330 ,4,1,5.,12.0,0.,12.0,0.,12.0,0.,12.0
1979-07-07 03:38:01.330 ,0,1,3.,12.0,0.,12.0,0.,12.0,0.,12.0
1979-07-07 03:38:13.330 ,0,1,0.,12.0,0.,12.0,0.,12.0,0.,12.0
1979-07-07 03:38:25.330 ,3,1,2.,12.0,0.,12.0,0.,12.0,0.,12.0
1979-07-07 03:38:37.330 ,3,1,0.,12.0,0.,12.0,0.,12.0,0.,12.0
1979-07-07 03:38:49.330 ,7,1,3.,12.0,0.,12.0,0.,12.0,1.,12.0
1979-07-07 03:39:01.330 ,7,1,2.,12.0,0.,12.0,0.,12.0,0.,12.0
1979-07-07 03:39:13.330 ,4,1,2.,12.0,0.,12.0,0.,12.0,1.,12.0
1979-07-07 03:39:25.330 ,4,1,5.,12.0,0.,12.0,0.,12.0,3.,12.0
1979-07-07 03:39:37.330 ,0,1,0.,12.0,0.,12.0,0.,12.0,0.,12.0
1979-07-07 03:39:49.330 ,0,1,0.,12.0,0.,12.0,0.,12.0,0.,12.0
1979-07-07 03:40:01.330 ,3,1,0.,12.0,0.,12.0,0.,12.0,0.,12.0
1979-07-07 03:40:13.330 ,3,1,3.,12.0,0.,12.0,0.,12.0,0.,12.0
1979-07-07 03:40:25.330 ,7,1,3.,12.0,0.,12.0,0.,12.0,0.,12.0
1979-07-07 03:40:37.330 ,7,1,0.,12.0,0.,12.0,0.,12.0,0.,12.0
1979-07-07 03:40:49.330 ,4,1,0.,12.0,0.,12.0,0.,12.0,1.,12.0
1979-07-07 03:41:01.330 ,4,1,7.,12.0,0.,12.0,0.,12.0,0.,12.0
1979-07-07 03:41:13.330 ,0,1,1.,12.0,0.,12.0,0.,12.0,0.,12.0
1979-07-07 03:41:25.330 ,0,1,0.,12.0,0.,12.0,0.,12.0,0.,12.0
1979-07-07 03:41:37.330 ,0,0,1.,12.0,0.,12.0,0.,12.0,1.,12.0
1979-07-07 03:41:49.330 ,0,0,2.,12.0,0.,12.0,0.,12.0,0.,12.0
1979-07-07 03:42:01.330 ,0,0,2.,12.0,0.,12.0,0.,12.0,0.,12.0
1979-07-07 03:42:13.330 ,0,0,4.,12.0,0.,12.0,0.,12.0,0.,12.0
1979-07-07 03:42:25.330 ,5,1,1.,12.0,0.,12.0,0.,12.0,0.,12.0
1979-07-07 03:42:37.330 ,5,1,0.,12.0,0.,12.0,0.,12.0,0.,12.0
1979-07-07 03:42:49.330 ,5,0,5.,12.0,0.,12.0,0.,12.0,0.,12.0
1979-07-07 03:43:01.330 ,5,0,4.,12.0,0.,12.0,0.,12.0,0.,12.0
1979-07-07 03:43:13.330 ,4,1,6.,12.0,0.,12.0,0.,12.0,0.,12.0
1979-07-07 03:43:25.330 ,4,1,2.,12.0,0.,12.0,0.,12.0,0.,12.0
1979-07-07 03:43:37.330 ,4,0,3.,12.0,0.,12.0,0.,12.0,0.,12.0
1979-07-07 03:43:49.330 ,4,0,3.,12.0,0.,12.0,0.,12.0,0.,12.0
1979-07-07 03:44:01.330 ,3,1,3.,12.0,0.,12.0,0.,12.0,1.,12.0
1979-07-07 03:44:13.330 ,3,1,4.,12.0,0.,12.0,0.,12.0,0.,12.0
1979-07-07 03:44:25.330 ,3,0,1.,12.0,0.,12.0,0.,12.0,0.,12.0
1979-07-07 03:44:37.330 ,3,0,0.,12.0,0.,12.0,0.,12.0,0.,12.0
1979-07-07 03:44:49.330 ,2,1,2.,12.0,0.,12.0,0.,12.0,0.,12.0
1979-07-07 03:45:01.330 ,2,1,2.,12.0,0.,12.0,0.,12.0,0.,12.0
1979-07-07 03:45:13.330 ,2,0,2.,12.0,0.,12.0,0.,12.0,0.,12.0
1979-07-07 03:45:25.330 ,2,0,1.,12.0,0.,12.0,0.,12.0,0.,12.0
1979-07-07 03:45:37.330 ,1,1,1.,12.0,0.,12.0,0.,12.0,0.,12.0
1979-07-07 03:45:49.330 ,1,1,2.,12.0,0.,12.0,0.,12.0,0.,12.0
1979-07-07 03:46:01.330 ,1,0,0.,12.0,0.,12.0,0.,12.0,0.,12.0
1979-07-07 03:46:13.330 ,1,0,2.,12.0,0.,12.0,0.,12.0,0.,12.0
1979-07-07 03:46:25.330 ,0,1,1.,12.0,0.,12.0,0.,12.0,0.,12.0
1979-07-07 03:46:37.330 ,0,1,0.,12.0,0.,12.0,0.,12.0,0.,12.0
1979-07-07 03:46:49.330 ,0,0,1.,12.0,0.,12.0,0.,12.0,0.,12.0
1979-07-07 03:47:01.330 ,0,0,1.,12.0,0.,12.0,0.,12.0,0.,12.0
1979-07-07 03:47:13.330 ,0,1,0.,12.0,0.,12.0,0.,12.0,0.,12.0
1979-07-07 03:47:25.330 ,0,1,0.,12.0,0.,12.0,0.,12.0,0.,12.0
1979-07-07 03:47:37.330 ,0,0,0.,12.0,0.,12.0,0.,12.0,0.,12.0
1979-07-07 03:47:49.330 ,0,0,0.,12.0,1.,12.0,0.,12.0,1.,12.0
1979-07-07 03:48:01.330 ,1,1,3.,12.0,0.,12.0,0.,12.0,0.,12.0
1979-07-07 03:48:13.330 ,1,1,0.,12.0,0.,12.0,0.,12.0,0.,12.0
1979-07-07 03:48:25.330 ,1,0,2.,12.0,0.,12.0,0.,12.0,1.,12.0
1979-07-07 03:48:37.330 ,1,0,0.,12.0,0.,12.0,0.,12.0,0.,12.0
1979-07-07 03:48:49.330 ,2,1,1.,12.0,0.,12.0,0.,12.0,0.,12.0
1979-07-07 03:49:01.330 ,2,1,0.,12.0,0.,12.0,0.,12.0,0.,12.0
1979-07-07 03:49:13.330 ,2,0,1.,12.0,0.,12.0,0.,12.0,0.,12.0
1979-07-07 03:49:25.330 ,2,0,3.,12.0,0.,12.0,0.,12.0,2.,12.0
1979-07-07 03:49:37.330 ,3,1,0.,12.0,0.,12.0,0.,12.0,0.,12.0
1979-07-07 03:49:49.330 ,3,1,0.,12.0,0.,12.0,0.,12.0,0.,12.0
1979-07-07 03:50:01.330 ,3,0,1.,12.0,0.,12.0,0.,12.0,0.,12.0
1979-07-07 03:50:13.330 ,3,0,0.,12.0,0.,12.0,0.,12.0,0.,12.0
1979-07-07 03:50:25.330 ,4,1,1.,12.0,0.,12.0,0.,12.0,0.,12.0
1979-07-07 03:50:37.330 ,4,1,5.,12.0,0.,12.0,0.,12.0,0.,12.0
1979-07-07 03:50:49.330 ,4,0,1.,12.0,0.,12.0,0.,12.0,0.,12.0
1979-07-07 03:51:01.330 ,4,0,4.,12.0,0.,12.0,0.,12.0,0.,12.0
1979-07-07 03:51:13.330 ,5,1,3.,12.0,0.,12.0,0.,12.0,0.,12.0
1979-07-07 03:51:25.330 ,5,1,0.,12.0,0.,12.0,0.,12.0,1.,12.0
1979-07-07 03:51:37.330 ,5,0,2.,12.0,0.,12.0,0.,12.0,0.,12.0
1979-07-07 03:51:49.330 ,5,0,2.,12.0,0.,12.0,0.,12.0,1.,12.0
1979-07-07 03:52:01.330 ,6,1,6.,12.0,0.,12.0,0.,12.0,0.,12.0
1979-07-07 03:52:13.330 ,6,1,5.,12.0,0.,12.0,0.,12.0,0.,12.0
1979-07-07 03:52:25.330 ,6,0,4.,12.0,0.,12.0,0.,12.0,0.,12.0
1979-07-07 03:52:37.330 ,6,0,3.,12.0,0.,12.0,0.,12.0,0.,12.0
1979-07-07 03:52:49.330 ,7,1,2.,12.0,0.,12.0,0.,12.0,0.,12.0
1979-07-07 03:53:01.330 ,7,1,1.,12.0,0.,12.0,0.,12.0,0.,12.0
1979-07-07 03:53:13.330 ,7,0,0.,12.0,0.,12.0,0.,12.0,0.,12.0
1979-07-07 03:53:25.330 ,7,0,0.,12.0,0.,12.0,0.,12.0,0.,12.0
1979-07-07 03:53:37.330 ,7,1,0.,12.0,0.,12.0,0.,12.0,0.,12.0
1979-07-07 03:53:49.330 ,7,1,0.,12.0,0.,12.0,0.,12.0,0.,12.0
1979-07-07 03:54:01.330 ,7,0,0.,12.0,0.,12.0,0.,12.0,0.,12.0
1979-07-07 03:54:13.330 ,7,0,0.,12.0,0.,12.0,0.,12.0,0.,12.0
1979-07-07 03:54:25.330 ,6,1,0.,12.0,0.,12.0,0.,12.0,0.,12.0
1979-07-07 03:54:37.330 ,6,1,2.,12.0,0.,12.0,0.,12.0,0.,12.0
1979-07-07 03:54:49.330 ,6,0,3.,12.0,0.,12.0,0.,12.0,1.,12.0
1979-07-07 03:55:01.330 ,6,0,1.,12.0,0.,12.0,0.,12.0,0.,12.0
1979-07-07 03:55:13.330 ,5,1,2.,12.0,0.,12.0,0.,12.0,1.,12.0
1979-07-07 03:55:25.330 ,5,1,7.,12.0,0.,12.0,0.,12.0,0.,12.0
1979-07-07 03:55:37.330 ,5,0,6.,12.0,0.,12.0,0.,12.0,0.,12.0
1979-07-07 03:55:49.330 ,5,0,6.,12.0,0.,12.0,0.,12.0,0.,12.0
1979-07-07 03:56:01.330 ,4,1,2.,12.0,0.,12.0,0.,12.0,0.,12.0
1979-07-07 03:56:13.330 ,4,1,4.,12.0,0.,12.0,0.,12.0,0.,12.0
1979-07-07 03:56:25.330 ,4,0,5.,12.0,0.,12.0,0.,12.0,0.,12.0
1979-07-07 03:56:37.330 ,4,0,4.,12.0,0.,12.0,0.,12.0,0.,12.0
1979-07-07 03:56:49.330 ,3,1,4.,12.0,0.,12.0,0.,12.0,0.,12.0
1979-07-07 03:57:01.330 ,3,1,0.,12.0,0.,12.0,0.,12.0,0.,12.0
1979-07-07 03:57:13.330 ,3,0,2.,12.0,0.,12.0,0.,12.0,0.,12.0
1979-07-07 03:57:25.330 ,3,0,1.,12.0,0.,12.0,0.,12.0,0.,12.0
1979-07-07 03:57:37.330 ,2,1,0.,12.0,0.,12.0,0.,12.0,0.,12.0
1979-07-07 03:57:49.330 ,2,1,1.,12.0,0.,12.0,0.,12.0,0.,12.0
1979-07-07 03:58:01.330 ,2,0,1.,12.0,0.,12.0,0.,12.0,0.,12.0
1979-07-07 03:58:13.330 ,2,0,1.,12.0,0.,12.0,0.,12.0,0.,12.0
1979-07-07 03:58:25.330 ,1,1,2.,12.0,0.,12.0,0.,12.0,0.,12.0
1979-07-07 03:58:37.330 ,1,1,2.,12.0,0.,12.0,0.,12.0,1.,12.0
1979-07-07 03:58:49.330 ,1,0,3.,12.0,0.,12.0,0.,12.0,0.,12.0
1979-07-07 03:59:01.330 ,1,0,1.,12.0,0.,12.0,0.,12.0,0.,12.0
1979-07-07 03:59:13.330 ,0,1,0.,12.0,0.,12.0,0.,12.0,0.,12.0
1979-07-07 03:59:25.330 ,0,1,3.,12.0,0.,12.0,0.,12.0,0.,12.0
1979-07-07 03:59:37.330 ,0,0,1.,12.0,0.,12.0,0.,12.0,0.,12.0
1979-07-07 03:59:49.330 ,0,0,0.,12.0,0.,12.0,0.,12.0,0.,12.0
1979-07-07 04:00:01.330 ,0,1,0.,12.0,0.,12.0,0.,12.0,0.,12.0
1979-07-07 04:00:13.330 ,0,1,1.,12.0,0.,12.0,0.,12.0,0.,12.0
1979-07-07 04:00:25.330 ,0,0,3.,12.0,0.,12.0,0.,12.0,0.,12.0
1979-07-07 04:00:37.330 ,0,0,2.,12.0,0.,12.0,0.,12.0,0.,12.0
1979-07-07 04:00:49.330 ,1,1,1.,12.0,0.,12.0,0.,12.0,1.,12.0
1979-07-07 04:01:01.330 ,1,1,2.,12.0,0.,12.0,0.,12.0,0.,12.0
1979-07-07 04:01:13.330 ,1,0,3.,12.0,0.,12.0,0.,12.0,0.,12.0
1979-07-07 04:01:25.330 ,1,0,1.,12.0,0.,12.0,0.,12.0,0.,12.0
1979-07-07 04:01:37.330 ,2,1,2.,12.0,0.,12.0,0.,12.0,0.,12.0
1979-07-07 04:01:49.330 ,2,1,1.,12.0,0.,12.0,0.,12.0,0.,12.0
1979-07-07 04:02:01.330 ,2,0,1.,12.0,0.,12.0,0.,12.0,0.,12.0
1979-07-07 04:02:13.330 ,2,0,2.,12.0,0.,12.0,0.,12.0,0.,12.0
1979-07-07 04:02:25.330 ,3,1,4.,12.0,0.,12.0,0.,12.0,0.,12.0
1979-07-07 04:02:37.330 ,3,1,2.,12.0,0.,12.0,0.,12.0,0.,12.0
1979-07-07 04:02:49.330 ,3,0,2.,12.0,0.,12.0,0.,12.0,0.,12.0
1979-07-07 04:03:01.330 ,3,0,1.,12.0,0.,12.0,0.,12.0,0.,12.0
1979-07-07 04:03:13.330 ,4,1,1.,12.0,0.,12.0,0.,12.0,0.,12.0
1979-07-07 04:03:25.330 ,4,1,3.,12.0,0.,12.0,0.,12.0,0.,12.0
1979-07-07 04:03:37.330 ,4,0,2.,12.0,0.,12.0,0.,12.0,0.,12.0
1979-07-07 04:03:49.330 ,4,0,0.,12.0,0.,12.0,0.,12.0,0.,12.0
1979-07-07 04:04:01.330 ,5,1,1.,12.0,0.,12.0,0.,12.0,0.,12.0
1979-07-07 04:04:13.330 ,5,1,4.,12.0,0.,12.0,0.,12.0,0.,12.0
1979-07-07 04:04:25.330 ,5,0,1.,12.0,0.,12.0,0.,12.0,0.,12.0
1979-07-07 04:04:37.330 ,5,0,1.,12.0,0.,12.0,0.,12.0,1.,12.0
1979-07-07 04:04:49.330 ,6,1,4.,12.0,0.,12.0,0.,12.0,0.,12.0
1979-07-07 04:05:01.330 ,6,1,3.,12.0,0.,12.0,0.,12.0,0.,12.0
1979-07-07 04:05:13.330 ,6,0,2.,12.0,0.,12.0,0.,12.0,0.,12.0
1979-07-07 04:05:25.330 ,6,0,2.,12.0,0.,12.0,0.,12.0,0.,12.0
1979-07-07 04:05:37.330 ,7,1,2.,12.0,0.,12.0,0.,12.0,0.,12.0
1979-07-07 04:05:49.330 ,7,1,0.,12.0,0.,12.0,0.,12.0,1.,12.0
1979-07-07 04:06:01.330 ,7,0,0.,12.0,0.,12.0,0.,12.0,0.,12.0
1979-07-07 04:06:13.330 ,7,0,0.,12.0,0.,12.0,0.,12.0,2.,12.0
1979-07-07 04:06:25.330 ,7,1,0.,12.0,0.,12.0,0.,12.0,1.,12.0
1979-07-07 04:06:37.330 ,7,1,0.,12.0,0.,12.0,0.,12.0,0.,12.0
1979-07-07 04:06:49.330 ,7,0,0.,12.0,0.,12.0,0.,12.0,0.,12.0
1979-07-07 04:07:01.330 ,7,0,0.,12.0,0.,12.0,0.,12.0,0.,12.0
1979-07-07 04:07:13.330 ,6,1,0.,12.0,0.,12.0,0.,12.0,0.,12.0
1979-07-07 04:07:25.330 ,6,1,0.,12.0,0.,12.0,0.,12.0,0.,12.0
1979-07-07 04:07:37.330 ,6,0,1.,12.0,0.,12.0,0.,12.0,1.,12.0
1979-07-07 04:07:49.330 ,6,0,3.,12.0,0.,12.0,0.,12.0,0.,12.0
1979-07-07 04:08:01.330 ,5,1,4.,12.0,0.,12.0,0.,12.0,0.,12.0
1979-07-07 04:08:13.330 ,5,1,2.,12.0,0.,12.0,0.,12.0,0.,12.0
1979-07-07 04:08:25.330 ,5,0,3.,12.0,0.,12.0,0.,12.0,0.,12.0
1979-07-07 04:08:37.330 ,5,0,4.,12.0,0.,12.0,0.,12.0,0.,12.0
1979-07-07 04:08:49.330 ,4,1,0.,12.0,0.,12.0,0.,12.0,0.,12.0
1979-07-07 04:09:01.330 ,4,1,1.,12.0,0.,12.0,0.,12.0,0.,12.0
1979-07-07 04:09:13.330 ,4,0,4.,12.0,0.,12.0,0.,12.0,1.,12.0
1979-07-07 04:09:25.330 ,4,0,1.,12.0,0.,12.0,0.,12.0,0.,12.0
1979-07-07 04:09:37.330 ,3,1,0.,12.0,0.,12.0,0.,12.0,0.,12.0
1979-07-07 04:09:49.330 ,3,1,2.,12.0,0.,12.0,0.,12.0,1.,12.0
1979-07-07 04:10:01.330 ,3,0,2.,12.0,0.,12.0,0.,12.0,0.,12.0
1979-07-07 04:10:13.330 ,3,0,2.,12.0,0.,12.0,0.,12.0,0.,12.0
1979-07-07 04:10:25.330 ,2,1,3.,12.0,0.,12.0,0.,12.0,0.,12.0
1979-07-07 04:10:37.330 ,2,1,1.,12.0,0.,12.0,0.,12.0,0.,12.0
1979-07-07 04:10:49.330 ,2,0,1.,12.0,0.,12.0,0.,12.0,0.,12.0
1979-07-07 04:11:01.330 ,2,0,1.,12.0,0.,12.0,0.,12.0,0.,12.0
1979-07-07 04:11:13.330 ,1,1,0.,12.0,0.,12.0,0.,12.0,0.,12.0
1979-07-07 04:11:25.330 ,1,1,2.,12.0,0.,12.0,0.,12.0,0.,12.0
1979-07-07 04:11:37.330 ,1,0,0.,12.0,0.,12.0,0.,12.0,1.,12.0
1979-07-07 04:11:49.330 ,1,0,0.,12.0,0.,12.0,0.,12.0,0.,12.0
1979-07-07 04:12:01.330 ,0,1,1.,12.0,0.,12.0,0.,12.0,0.,12.0
1979-07-07 04:12:13.330 ,0,1,3.,12.0,0.,12.0,0.,12.0,0.,12.0
1979-07-07 04:12:25.330 ,0,0,1.,12.0,0.,12.0,0.,12.0,0.,12.0
1979-07-07 04:12:37.330 ,0,0,2.,12.0,0.,12.0,0.,12.0,0.,12.0
1979-07-07 04:12:49.330 ,0,1,3.,12.0,0.,12.0,0.,12.0,0.,12.0
1979-07-07 04:13:01.330 ,0,1,4.,12.0,0.,12.0,0.,12.0,0.,12.0
1979-07-07 04:13:13.330 ,0,0,1.,12.0,0.,12.0,0.,12.0,1.,12.0
1979-07-07 04:13:25.330 ,0,0,1.,12.0,0.,12.0,0.,12.0,0.,12.0
1979-07-07 04:13:37.330 ,1,1,1.,12.0,0.,12.0,0.,12.0,0.,12.0
1979-07-07 04:13:49.330 ,1,1,0.,12.0,0.,12.0,0.,12.0,0.,12.0
1979-07-07 04:14:01.330 ,1,0,0.,12.0,0.,12.0,0.,12.0,0.,12.0
1979-07-07 04:14:13.330 ,1,0,1.,12.0,0.,12.0,0.,12.0,0.,12.0
1979-07-07 04:14:25.330 ,2,1,1.,12.0,0.,12.0,0.,12.0,0.,12.0
1979-07-07 04:14:37.330 ,2,1,1.,12.0,0.,12.0,0.,12.0,0.,12.0
1979-07-07 04:14:49.330 ,2,0,1.,12.0,0.,12.0,0.,12.0,0.,12.0
1979-07-07 04:15:01.330 ,2,0,1.,12.0,0.,12.0,0.,12.0,0.,12.0
1979-07-07 04:15:13.330 ,3,1,1.,12.0,0.,12.0,0.,12.0,0.,12.0
1979-07-07 04:15:25.330 ,3,1,1.,12.0,0.,12.0,0.,12.0,0.,12.0
1979-07-07 04:15:37.330 ,3,0,0.,12.0,0.,12.0,0.,12.0,1.,12.0
1979-07-07 04:15:49.330 ,3,0,0.,12.0,0.,12.0,0.,12.0,0.,12.0
1979-07-07 04:16:01.330 ,4,1,0.,12.0,0.,12.0,0.,12.0,0.,12.0
1979-07-07 04:16:13.330 ,4,1,1.,12.0,0.,12.0,0.,12.0,0.,12.0
1979-07-07 04:16:25.330 ,4,0,1.,12.0,0.,12.0,0.,12.0,0.,12.0
1979-07-07 04:16:37.330 ,4,0,1.,12.0,0.,12.0,0.,12.0,0.,12.0
1979-07-07 04:16:49.330 ,5,1,0.,12.0,0.,12.0,0.,12.0,0.,12.0
1979-07-07 04:17:01.330 ,5,1,0.,12.0,0.,12.0,0.,12.0,1.,12.0
1979-07-07 04:17:13.330 ,5,0,3.,12.0,0.,12.0,0.,12.0,0.,12.0
1979-07-07 04:17:25.330 ,5,0,5.,12.0,0.,12.0,0.,12.0,0.,12.0